Location: Township of Marena
(38.1747°N, 99.6798°W)
Time: 12:07:31
(UTC+00:00)

CZ-4B R/B - Pass Details

Date: 26 October 2020
Orbit: 389 x 462 km, 97.6° (Epoch: 24 November)

Event Time Altitude Azimuth Distance (km) Brightness Sun altitude
Rises 11:05:39 0° 155° (SSE) 2,479 5.5 -22.9°
Reaches altitude 10° 11:07:43 10° 149° (SSE) 1,610 4.5 -22.5°
Maximum altitude 11:11:04 48° 75° (ENE) 616 2.4 -21.8°
Drops below altitude 10° 11:14:25 10° 360° (N) 1,613 4.2 -21.1°
Enters shadow 11:15:36 - 356° (N) 2,111 4.8 -20.9°
